Flag Weather past 2 weeks in Flint, Michigan, U.S.A.

Now
51 °F

Mostly cloudy.


Feels Like: 48 °F
Forecast: 46 / 50 °F
Wind: 8 mph from Southwest

Location: Bishop International Airport

Current Time: Nov 23, 2014 at 5:23:51 AM

Latest Report: Nov 23, 2014 at 4:53 AM


Visibility: 10 mi

Pressure: 29.90 "Hg

Humidity: 77%

Dew point: 44 °F

Location of FlintLocation

Historic Weather in Flint — Graph

°F

Flint temperature yesterday

Maximum temperature yesterday: 48 °F (at 11:53 PM)
Minimum temperature yesterday: 25 °F (at 12:53 AM)
Average temperature yesterday: 38 °F

Past Weeks' High & Low Weather Summary

 TemperatureHumidityPressure
High59 °F (Nov 10, 2:53 PM)91% (Nov 21, 7:53 AM)30.49 "Hg (Nov 21, 7:53 AM)
Low5 °F (Nov 21, 7:53 AM)41% (Nov 10, 10:53 PM)29.62 "Hg (Nov 11, 12:53 PM)
Average32 °F69%30.00 "Hg
* Reported Nov 8 3:53 AM — Nov 23 3:53 AM, Flint, Weather by CustomWeather, © 2014

Note: Actual official high and low records may vary slightly from our data, if they occured in-between our weather recording intervals... More about our weather records

Advertising

Flint weather history for previous 24 hours

 ConditionsComfort  
Time TempWeatherWind HumidityBarometerVisibility
3:53 AM
Nov 23
51 °FMostly cloudy.10 mph77%29.90 "Hg10 mi
2:53 AM50 °FMostly cloudy.6 mph80%29.93 "Hg9 mi
1:53 AM50 °FMostly cloudy.9 mph80%29.93 "Hg8 mi
12:53 AM47 °FPassing clouds.7 mph86%29.93 "Hg7 mi
11:53 PM
Nov 22
48 °FFog.6 mph86%29.92 "Hg6 mi
10:53 PM47 °FFog.7 mph90%29.92 "Hg4 mi
9:53 PM47 °FFog.7 mph90%29.92 "Hg4 mi
9:00 PM46 °FFog.7 mph89%29.90 "Hg2 mi
7:53 PM45 °FLight rain. Fog.8 mph90%29.93 "Hg2 mi
6:53 PM44 °FFog.9 mph89%29.93 "Hg2 mi
5:53 PM43 °FFog.8 mph89%29.93 "Hg1 mi
4:53 PM43 °FFog.8 mph89%29.93 "Hg1 mi
4:03 PM42 °FFog.10 mph89%29.92 "Hg1 mi
2:53 PM43 °FLow clouds.12 mph82%29.94 "Hg4 mi
1:53 PM42 °FLow clouds.10 mph79%29.96 "Hg5 mi
12:53 PM41 °FLow clouds.12 mph82%29.98 "Hg5 mi
11:53 AM40 °FLow clouds.12 mph83%30.02 "Hg5 mi
10:53 AM39 °FOvercast.13 mph82%30.04 "Hg6 mi
9:53 AM36 °FFog.10 mph85%30.07 "Hg5 mi
8:53 AM35 °FRain. Low clouds.10 mph82%30.08 "Hg2 mi
7:53 AM33 °FOvercast.13 mph72%30.11 "Hg10 mi
6:53 AM32 °FOvercast.10 mph61%30.11 "Hg10 mi
5:53 AM32 °FMostly cloudy.10 mph54%30.14 "Hg10 mi
Weather by CustomWeather, © 2014

See weather overviewHow to use our weather pages